Location: Brzyszów
(50.7974°N, 19.2785°E)
Time: 21:56:55
(UTC+00:00)

Daily predictions for brighter satellites

Satellite Brightness Start Highest point End
(mag) Time Altitude Azimuth Time Altitude Azimuth Time Altitude Azimuth
NOSS 3-3 (A) 4.2 16:18:31 10° S 16:23:18 40° ESE 16:28:54 10° NE
Geosat FO 4.2 16:22:27 10° NNE 16:25:35 84° NW 16:28:37 10° SW
CZ-2D R/B 2.6 16:23:48 10° SSE 16:26:52 88° NE 16:29:55 10° NNW
Cosmos 2082 Rocket 4.4 16:23:58 10° WNW 16:27:46 18° NNW 16:31:35 10° N
IRS-1C 4.2 16:22:32 10° SSE 16:27:52 87° WSW 16:33:14 10° NNW
Cosmos 2123 Rocket 4.0 16:21:39 10° S 16:27:57 77° E 16:34:16 10° NNE
Cosmos 1378 Rocket 3.5 16:26:06 10° S 16:30:21 61° E 16:34:35 10° NNE
Meteor 2-1 Rocket 4.4 16:28:13 10° N 16:33:56 56° ENE 16:39:43 10° SSE
Sich 1 Rocket 4.0 16:30:12 10° N 16:34:34 43° ENE 16:38:54 10° SE
Cosmos 2297 Rocket 3.1 16:30:43 10° SSE 16:35:24 27° ESE 16:40:06 10° NE
CZ-2D R/B 3.7 16:31:43 10° SE 16:35:24 41° ENE 16:39:11 10° N
Thor Agena Rocket 4.4 16:32:10 10° S 16:37:09 55° WSW 16:42:14 10° NNW
NOSS 3-4 (A) 3.9 16:34:19 10° NW 16:40:37 54° NE 16:48:01 10° ESE
NOSS 3-4 (C) 4.0 16:34:34 10° NW 16:40:53 53° NE 16:48:19 10° ESE
SKYMED 2 3.7 16:37:45 10° NNE 16:42:02 52° E 16:46:16 10° S
GP-B 3.1 16:37:52 10° S 16:42:14 89° E 16:46:38 10° N
Cosmos 1025 Rocket 3.3 16:39:12 10° SSE 16:43:19 47° E 16:47:29 10° NNE
Cosmos 724 4.4 16:38:03 10° SSW 16:44:13 82° SE 16:50:19 10° NE
SAR-Lupe-5 4.0 16:42:47 10° NNE 16:45:20 86° ESE 16:47:46 10° SSW
Cosmos 1356 Rocket 3.2 16:41:39 10° NNW 16:45:36 87° ENE 16:49:34 10° SSE
Resurs 01 Rocket 2.3 16:42:25 10° SE 16:46:20 32° ENE 16:50:16 10° N
Resurs 1-3 3.5 16:45:10 10° SSE 16:49:26 70° ENE 16:53:44 10° N
Cosmos 2292 Rocket 3.9 16:53:48 10° SSW 16:56:35 42° WNW 16:59:37 10° N
USA 290 2.8 16:53:49 10° SW 16:56:58 58° WNW 17:00:08 10° NNE
ATLAS 2AS CENTAUR R/B 3.8 16:50:49 10° W 16:57:06 35° NNW 17:03:18 10° NE
Cosmos 1782 4.2 16:54:55 10° NNE 16:57:10 16° ENE 16:57:30 15° ENE
Cosmos 2016 Rocket 4.5 16:51:58 10° NNW 16:58:09 68° W 17:04:23 10° S
SPOT 1/Viking Rocket 4.0 16:53:59 10° S 16:59:04 66° WSW 17:04:11 10° NNW
Cosmos 1980 3.7 16:56:43 10° NNW 17:02:25 72° ENE 17:08:03 10° SE
Meteor 1-27 4.5 16:57:28 10° N 17:03:05 50° ENE 17:08:43 10° SSE
COSMOS 2428 3.4 16:57:33 10° NW 17:03:11 60° WSW 17:08:48 10° SSE
Cosmos 2263 Rocket 3.9 17:03:39 10° ESE 17:04:53 12° ESE 17:04:53 12° ESE
Cosmos 1674 Rocket 3.6 17:01:52 10° SSW 17:06:16 83° W 17:10:43 10° N
Cosmos 2237 Rocket 2.2 17:02:07 10° NNW 17:07:49 73° ENE 17:13:29 10° SE
Lacrosse 5 rocket 1.7 17:05:33 10° W 17:08:56 46° NNW 17:11:30 17° NE
Cosmos 2285 Rocket 4.0 17:02:48 10° NNW 17:09:17 84° ENE 17:15:41 10° SSE
Terra 3.7 17:13:01 12° NE 17:13:01 12° NE 17:14:21 10° NNE
Cosmos 1375 Rocket 4.5 17:06:15 10° SSW 17:12:36 74° SE 17:19:05 10° NE
Cosmos 2233 Rocket 4.4 17:06:50 10° NNW 17:13:05 70° W 17:19:20 10° S
SJ-6B 3.0 17:13:14 10° SE 17:16:25 37° ENE 17:19:39 10° N
USA 267 3.4 17:12:28 13° ENE 17:18:21 72° NNW 17:24:52 10° WSW
CARTOSAT-1 3.4 17:14:26 10° SSE 17:18:37 80° ENE 17:22:51 10° NNW
Cosmos 1867 4.3 17:15:09 10° WSW 17:20:28 52° NW 17:25:49 10° NE
Cosmos 44 Rocket 4.1 17:17:09 10° S 17:21:27 31° ESE 17:23:37 22° ENE
Aureole 3 Rocket 2.6 17:17:58 10° N 17:22:10 88° W 17:25:27 10° S
Cosmos 1513 Rocket 4.5 17:16:00 10° N 17:22:15 66° ENE 17:28:33 10° SSE
SJ-7 4.3 17:20:20 10° S 17:24:01 73° WSW 17:27:42 10° NNW
ERS-1 Rocket 4.4 17:24:34 18° NE 17:24:34 18° NE 17:27:53 10° NNE
Meteor 1-31 Rocket 3.6 17:32:45 26° NE 17:32:45 26° NE 17:35:02 10° N
SL-16 R/B 2.7 17:27:27 10° NNW 17:32:46 40° NE 17:35:24 26° E
Cosmos 2227 Rocket 2.8 17:29:27 10° S 17:34:27 34° ESE 17:36:55 23° ENE
Cosmos 1544 Rocket 4.3 17:33:36 10° N 17:37:19 30° ENE 17:37:19 30° ENE
Cosmos 1570 Rocket 3.9 17:33:26 10° S 17:38:39 65° ESE 17:43:51 10° NNE
Cosmos 1125 Rocket 4.4 17:33:43 10° NNW 17:38:43 50° WSW 17:43:43 10° S
Cosmos 1607 4.3 17:33:40 10° WSW 17:39:45 62° NW 17:45:40 11° NE
Cosmos 1455 Rocket 3.1 17:38:37 10° NNW 17:42:55 78° W 17:47:12 10° S
ARIANE 6 FM1 Upper Stage 3.2 17:40:34 10° NW 17:44:15 36° NNE 17:44:43 34° NE
Cosmos 1975 Rocket 3.1 17:41:10 10° S 17:45:23 51° E 17:49:36 10° NNE
CZ-4C R/B 2.4 17:41:14 10° WSW 17:45:37 58° NW 17:50:06 16° NE
NOSS 3-3 (C) 3.9 17:40:43 10° SW 17:46:03 78° NW 17:51:20 16° NE
YAOGAN 1 4.3 17:42:37 10° SSW 17:46:30 35° W 17:50:26 10° NNW
DNEPR-1 R/B 3.9 17:41:53 10° NW 17:46:40 76° NE 17:49:53 26° SE
BREEZE-M DEB (TANK) 4.3 17:42:38 10° WNW 17:46:46 45° SSW 17:54:41 10° SE
DMSP B5D1-3 4.4 17:44:32 10° NNE 17:49:41 81° ESE 17:54:48 10° SSW
Cosmos 1464 Rocket 3.9 17:45:17 10° N 17:51:41 75° ENE 17:57:59 10° SSE
COSMO-SKYMED 1 3.3 17:51:15 10° N 17:55:15 49° WNW 17:59:13 10° SW
CZ-4 R/B 2.6 17:58:01 25° NNE 17:58:01 25° NNE 17:59:55 10° N
Cosmos 2228 2.8 17:52:21 10° N 17:56:33 84° E 18:00:41 10° S
Cosmos 2208 Rocket 3.9 17:53:11 10° SSW 17:58:23 68° ESE 18:02:50 15° NNE
CZ-4B R/B 3.7 17:58:27 34° ENE 17:58:27 34° ENE 18:03:11 10° N
SPOT 5 2.9 18:00:21 36° SE 18:02:13 60° ENE 18:07:14 10° N
CZ-4B DEB 4.3 18:01:29 38° ESE 18:03:08 51° ENE 18:08:26 10° N
Meteor 2-17 Rocket 4.3 17:58:04 10° S 18:04:08 87° E 18:10:13 10° N
Cosmos 773 Rocket 3.9 17:59:01 10° SSW 18:04:17 81° ESE 18:08:54 14° NNE
BREEZE-M (TANK) 4.2 18:05:51 10° W 18:08:43 35° SSW 18:12:02 21° SSE
CSL-04 Debris 4.1 18:07:39 30° SE 18:10:23 69° ENE 18:15:47 10° N
RESURS DK-1 4.3 18:09:56 10° N 18:11:22 17° N 18:11:22 17° N
NOSS 3-3 (A) 4.4 18:08:38 10° WSW 18:13:56 53° NW 18:18:19 20° NE
CSL-04 Rocket 3.4 18:11:33 28° SSE 18:14:25 78° ENE 18:19:43 10° NNW
Cosmos 2297 Rocket 2.6 18:13:27 10° SW 18:19:03 61° NW 18:24:16 12° NNE
Tiangong 0.9 18:18:45 10° SSW 18:18:49 10° SSW 18:18:49 10° SSW
Cosmos 1943 3.8 18:16:37 10° NNW 18:21:38 38° NE 18:21:38 38° NE
Resurs 01 Rocket 3.3 18:18:41 10° SSW 18:22:40 33° W 18:26:40 10° NNW
Orbus 7S? 4.3 18:15:55 10° WNW 18:23:38 56° SW 18:24:45 43° S
Feng Yun 1-1 Rocket 4.2 18:30:12 54° SE 18:31:32 76° ENE 18:37:27 10° NNW
Cosmos 2344 3.4 18:24:05 10° SSW 18:31:39 56° SE 18:32:55 50° E
NOSS 3-4 (A) 4.5 18:25:07 10° NW 18:31:40 53° SW 18:37:51 16° SSE
NOSS 3-4 (C) 4.4 18:25:23 10° NW 18:31:58 54° SW 18:38:02 17° SSE
Cosmos 1782 3.7 18:28:42 10° NNW 18:31:36 42° WNW 18:31:36 42° WNW
BREEZE-M DEB (TANK) 4.0 18:16:29 10° WSW 18:35:17 64° S 18:36:50 51° SE
Tsikada Rocket 4.3 18:42:39 49° NE 18:42:39 49° NE 18:47:14 10° NNE
Lacrosse 5 rocket 3.2 18:43:09 10° WNW 18:44:56 22° NW 18:44:56 22° NW
PAYLOAD B 4.1 18:45:53 75° SSE 18:46:23 89° WSW 18:52:03 10° NNW
Cosmos 2263 Rocket 3.0 18:43:17 10° SSW 18:46:40 37° S 18:46:40 37° S
Terra 3.3 18:51:39 28° N 18:51:39 28° N 18:53:55 10° N
ATLAS 2AS CENTAUR R/B 3.9 18:44:06 10° NW 18:49:54 28° N 18:51:31 25° NNE
Cosmos 2237 Rocket 4.4 18:47:01 10° NW 18:51:18 22° WSW 18:55:34 10° SSW
Okean O Rocket 4.1 19:01:58 13° N 19:01:58 13° N 19:02:31 10° N
USA 267 3.7 18:59:48 47° NNE 19:01:00 52° N 19:07:18 10° WNW
ERS-1 Rocket 3.9 19:04:25 41° NNW 19:04:25 41° NNW 19:07:41 10° NNW
Cosmos 44 Rocket 4.0 18:57:46 10° WSW 19:02:16 53° WNW 19:02:16 53° WNW
ADEOS 4.3 19:12:54 50° NW 19:12:54 50° NW 19:16:55 10° NNW
SL-16 R/B 3.0 19:11:36 10° NW 19:16:58 44° WSW 19:17:18 44° WSW
Cosmos 1634 Rocket 4.1 19:10:47 10° NNW 19:17:03 72° W 19:17:03 72° W
Cosmos 2227 Rocket 2.9 19:12:49 10° SW 19:18:19 50° NW 19:18:49 49° NW
CZ-4 R/B 4.4 19:33:01 12° NW 19:33:01 12° NW 19:33:26 10° NW
CZ-4C R/B 3.8 19:30:44 10° WNW 19:35:03 27° N 19:35:03 27° N
CZ-4B R/B 4.5 19:40:18 36° WNW 19:40:18 36° WNW 19:43:59 10° NNW
ATLAS 2AS CENTAUR R/B 4.4 20:35:53 10° NW 20:38:56 26° NNW 20:38:56 26° NNW
